Умёт

Россия / Тамбовская область     52°33′29″N   42°58′00″E
темп.,
°C
ветер,
м/с
пор.,
м/с
влажн.,
%
обл.,
%
осадки,
мм/ч
давл.,
гПа
погр.,
м
22 октября, пт
пт2200:00+11юз81767100 0.0 1007695
03:00+10юз81666100 0.0 1006668
06:00+8юз81765100 0.0 1005594
09:00+10юз91668100 0.0 1005685
12:00+13юз91463100 0.0 1006854
15:00+14зюз8136494 0.0 10061045
18:00+12зюз71469100 0.0 1008572
21:00+10юз614774 0.0 1010402
23 октября, сб
сб2300:00+9зюз5137638 0.0 1011341
03:00+7юз411765 0.0 1011230
06:00+6юз512794 0.0 1012241
09:00+9юз6126412 0.0 1012537
12:00+13зюз7124299 0.0 10121329
15:00+14ююз4850100 0.0 10101242
18:00+13юз81458100 0.4 10101034
21:00+9зсз511655 0.5 1011446
24 октября, вс
вс2400:00+6з511680 0.0 1013387
03:00+4з411774 0.0 1014395
06:00+3зюз410865 0.0 1015317
09:00+4зюз69775 0.0 1015543
12:00+8зюз795278 0.0 10151483
15:00+8з6951100 0.0 10151754
18:00+6з586799 0.2 1015707
21:00+3з369494 0.4 1015598
25 октября, пн
пн2500:00+3ссз2596100 2.0 1016359
03:00+3ссз4791100 2.2 1016587
06:00+2ссз598694 0.1 1018611
09:00+2ссз61090100 0.3 1020812
12:00+2ссз8971100 0.0 10231052
15:00+2ссз7971100 0.1 10251112
18:00+2с6106043 0.0 10281158
21:000ссз510695 0.0 1029410
26 октября, вт
вт2600:00−2ссз377982 0.0 1031179
03:00−2сз348122 0.0 103285
06:00−2зсз357972 0.0 103297
09:000з47645 0.0 1032299
12:00+4з67411 0.0 1030733
15:00+5з693922 0.0 1028829
18:00+1зюз410545 0.0 1028203
21:000юз4125845 0.0 1027251